EHI
5 3 1 0 0 0 0 0 0 0 0 0 0 0 0 0 0 0 0 0 0 0 1 0 0 1 3 3 2 3 4 4 3 2 3 3 3 3 3 2 1 0 0 0 0 1 1 1 0
2 1 0 0 0 0 0 0 0 0 0 0 0 0 0 0 0 0 0 0 0 0 1 1 1 2 3 3 3 3 2 1 1 1 2 3 3 3 3 1 0 0 0 0 0 0 0 0 0
0 0 0 0 0 0 0 0 0 0 0 0 0 0 0 0 0 0 0 0 0 0 0 1 3 4 3 3 4 4 2 0 0 1 1 1 2 3 2 1 0 0 0 0 0 0 1 1 1
1 1 1 1 1 0 0 0 0 1 1 0 0 0 0 1 1 1 0 0 0 0 0 2 5 6 4 3 2 2 2 0 0 1 0 1 1 1 1 0 0 0 0 0 0 1 2 3 2
3 4 4 2 1 0 0 0 1 1 1 1 1 0 0 2 3 2 1 0 0 0 0 2 6 7 6 3 1 1 1 0 0 0 0 0 0 0 0 0 0 0 0 0 0 1 2 2 1
7 6 4 2 0 0 0 1 2 2 3 2 1 0 1 3 4 3 1 0 0 0 0 2 5 7 6 4 2 1 0 0 0 0 0 0 0 0 1 0 0 0 0 0 0 1 1 2 2
8 6 3 1 0 0 0 1 2 3 3 3 2 1 1 3 4 3 1 0 0 0 0 1 3 5 6 4 3 2 1 0 0 0 0 0 0 1 1 0 0 1 1 1 1 3 4 6 7
5 3 1 0 0 0 0 0 1 2 3 3 2 1 1 3 3 2 1 0 1 1 0 0 1 3 3 3 2 2 1 0 0 0 0 0 0 1 1 1 1 3 5 4 5 6 8 9 9
1 0 0 0 0 0 1 1 1 2 2 3 2 1 1 3 3 2 2 2 3 2 1 0 0 1 1 1 1 1 0 0 0 0 1 0 0 1 1 1 3 6 8 8 8 9 10 9 9
0 0 0 1 1 1 3 3 3 2 2 3 3 2 2 3 3 3 4 5 6 5 2 0 0 1 1 0 0 0 0 0 0 0 0 0 0 0 0 1 3 6 7 7 8 9 8 7 6
1 2 2 2 2 3 4 5 5 4 3 4 4 3 3 3 4 5 6 6 7 8 5 2 1 2 2 1 0 0 0 0 0 0 0 0 0 0 0 0 1 2 3 3 4 5 5 4 4
3 3 3 2 2 3 4 5 5 4 4 6 6 4 3 3 4 5 5 6 8 10 8 5 3 3 2 1 0 0 0 0 0 0 0 0 0 0 0 0 0 0 0 0 1 1 2 2 2
5 4 3 2 2 2 4 5 5 5 6 8 7 5 4 4 4 4 5 7 9 9 9 7 5 3 1 0 0 0 0 0 0 0 0 0 0 0 0 0 0 0 0 0 0 0 1 1 1
3 3 3 3 3 3 4 6 7 9 10 10 9 6 5 5 5 5 6 8 9 8 7 6 4 2 1 0 0 0 0 0 0 0 0 0 0 0 0 0 0 0 0 0 0 0 0 0 0
1 1 1 2 3 4 5 6 9 12 13 13 10 8 8 8 7 7 8 9 9 7 6 5 3 2 1 0 0 0 0 0 0 0 0 0 1 0 0 0 0 0 0 0 0 0 0 0 1
0 0 0 1 2 3 3 5 9 14 16 15 12 11 12 11 9 9 11 12 9 8 7 6 5 4 3 2 0 0 0 0 1 1 1 0 0 0 0 0 0 0 0 0 0 0 0 1 2
0 0 0 1 2 2 1 3 8 15 18 16 14 15 16 15 14 16 17 15 11 8 7 6 7 6 5 4 2 0 0 0 1 2 2 1 1 1 1 0 0 0 0 0 0 0 0 1 2
0 0 0 1 2 2 0 2 7 14 17 17 16 18 18 17 19 22 23 18 12 8 6 6 8 7 6 5 4 2 1 0 1 3 3 3 2 2 2 1 0 0 0 0 0 0 0 0 1
0 0 0 1 2 2 1 1 5 10 15 19 21 21 19 19 21 23 23 20 15 11 8 8 9 9 7 5 4 4 2 1 1 2 3 3 3 3 2 1 0 0 1 0 0 0 0 0 0
0 0 0 2 4 3 2 2 4 7 14 23 27 25 22 22 23 22 21 22 21 17 14 13 12 10 8 5 4 4 3 1 1 1 3 3 3 3 3 1 0 0 1 0 0 0 0 0 0
0 0 1 4 5 4 3 3 4 8 16 26 32 31 27 25 25 23 22 24 25 22 18 16 13 11 9 7 6 5 4 2 1 2 3 3 3 4 5 4 2 2 2 1 0 0 0 0 0
0 0 1 4 4 2 2 3 4 8 18 27 33 32 29 27 25 24 25 27 29 25 21 17 14 11 10 9 8 7 6 5 4 3 3 3 3 5 7 7 6 5 4 3 1 1 1 1 1
0 0 1 2 2 1 1 2 3 7 15 25 31 31 28 26 27 27 26 29 31 29 25 21 17 13 11 10 9 9 8 7 6 4 3 4 5 6 8 9 8 6 4 3 3 2 2 2 2
0 0 0 1 1 0 1 1 1 3 8 17 26 29 27 25 28 29 29 30 31 31 29 26 23 20 15 11 11 10 9 8 7 6 5 6 7 7 8 8 7 6 4 3 3 3 3 3 3
0 0 0 0 0 0 0 0 0 1 5 10 17 24 27 27 26 28 30 31 32 32 31 30 30 28 23 17 13 10 9 8 8 9 8 9 8 8 8 7 7 6 5 4 3 3 3 3 3
0 0 0 0 0 0 0 0 0 2 5 9 13 18 24 25 23 23 26 29 32 32 33 33 32 32 30 25 18 13 9 8 9 10 10 10 9 8 8 7 6 6 5 5 4 3 3 3 3
0 0 0 0 0 0 0 0 1 2 5 9 12 15 18 20 19 18 21 25 29 31 33 35 33 31 31 29 24 18 14 12 11 10 9 9 9 8 7 7 6 6 5 5 5 4 4 3 3
0 0 0 0 0 0 0 0 1 3 6 8 10 12 14 16 18 18 18 22 26 28 32 36 35 33 31 30 26 22 19 17 14 11 9 9 9 9 8 8 8 7 6 6 8 8 6 4 4
0 0 0 0 0 0 0 0 1 3 6 8 10 12 13 15 17 17 17 21 25 27 31 34 35 34 32 29 25 21 19 18 17 14 12 10 10 11 11 10 9 9 8 8 10 11 9 7 6
0 0 0 0 0 0 0 0 1 3 5 8 11 13 14 16 16 16 18 21 25 27 29 30 32 33 31 28 24 20 18 18 18 16 13 11 11 13 12 11 10 10 10 10 11 12 11 9 8
Wind_Speed
8 6 3 1 1 3 2 3 6 6 6 8 11 11 10 8 6 7 3 9 10 8 6 9 12 13 14 14 14 15 15 15 14 14 14 15 15 15 15 14 13 13 13 12 12 12 11 12 12
5 5 1 1 3 3 2 5 9 9 10 10 11 11 10 8 8 9 5 9 11 9 7 9 13 14 14 14 14 14 14 14 14 14 14 14 14 14 14 14 13 12 12 11 11 11 11 11 10
5 3 1 2 1 3 4 7 11 11 10 8 7 7 6 6 8 6 7 12 10 8 6 9 14 14 14 14 14 14 14 13 13 13 14 13 13 13 13 13 12 11 11 11 10 10 9 9 9
2 1 1 2 2 1 6 9 11 12 9 8 9 7 5 5 6 9 12 12 11 7 7 9 14 14 14 14 14 14 13 13 13 13 13 13 12 12 12 11 11 10 10 10 9 9 8 8 7
1 2 3 2 2 3 6 9 10 10 7 9 11 9 6 6 14 15 13 12 11 7 6 8 14 14 14 13 14 14 13 12 12 12 12 12 11 11 11 10 10 9 9 9 8 7 7 6 6
2 2 3 2 2 3 5 9 12 13 13 11 11 9 5 8 13 13 13 11 10 9 6 7 12 14 13 13 13 13 12 12 12 12 11 11 11 10 10 10 9 9 8 8 7 6 6 5 4
3 2 2 3 3 4 5 7 10 12 11 8 9 8 6 7 11 13 12 11 9 8 7 5 6 8 11 12 12 12 11 11 11 10 10 10 10 10 10 9 8 8 8 7 7 6 5 4 3
3 3 2 2 4 3 4 6 8 12 10 11 8 9 8 9 11 13 11 10 9 7 6 5 4 4 4 6 10 11 11 10 10 10 9 9 9 9 9 8 7 7 7 7 7 6 5 4 4
3 3 2 3 5 4 6 8 6 8 11 6 5 8 12 15 14 13 11 8 7 8 5 5 5 4 4 4 7 8 9 9 8 7 8 7 3 3 4 6 7 7 7 6 6 6 5 5 4
4 3 5 5 6 7 8 9 7 8 10 9 11 13 15 14 14 13 12 10 8 8 6 5 5 5 4 4 4 3 3 3 3 2 3 2 2 2 3 5 7 7 6 6 6 6 5 3 1
4 4 3 3 4 7 8 6 6 10 8 13 18 18 15 14 12 11 10 10 9 9 8 6 6 6 5 3 3 2 1 2 2 2 3 2 2 1 1 1 2 3 3 2 2 2 1 1 1
3 2 3 3 4 6 8 7 6 6 9 15 18 18 16 14 12 11 10 9 8 8 7 6 6 5 5 4 3 3 2 2 2 2 3 3 2 1 2 1 2 1 1 1 1 1 2 2 2
3 1 2 3 3 5 8 7 8 7 12 15 16 15 14 13 11 10 10 9 8 7 6 6 6 6 5 4 3 3 3 3 2 2 3 4 3 2 2 2 2 2 1 2 2 2 2 2 2
3 2 1 4 4 5 9 6 7 8 14 15 15 13 12 12 12 10 10 9 8 7 7 6 6 6 5 4 3 3 3 3 2 2 3 3 3 2 2 1 1 2 2 2 2 2 2 1 1
2 3 2 1 5 4 8 5 5 11 14 14 13 13 12 11 12 12 12 11 10 8 7 6 6 5 5 4 3 3 3 3 3 3 3 3 3 3 3 2 1 1 1 1 1 1 1 1 1
3 3 1 2 3 3 8 3 5 10 13 12 11 12 11 10 11 11 11 10 9 8 7 6 7 6 4 3 3 2 2 3 2 2 2 3 3 3 2 2 1 1 1 1 1 1 1 0 0
3 1 2 2 2 4 5 4 7 9 11 11 11 11 11 10 9 10 11 11 10 9 8 6 5 5 5 3 3 2 2 2 2 2 2 2 2 3 2 2 1 1 1 0 1 1 1 1 0
4 2 2 3 3 4 4 4 7 9 10 11 11 10 10 12 11 11 11 11 9 8 7 7 5 5 4 3 2 1 1 1 1 2 2 2 2 2 2 2 1 1 1 0 0 1 0 1 1
4 2 3 3 3 4 4 5 8 9 9 9 9 10 10 11 10 11 11 11 9 8 7 6 6 5 4 3 2 2 1 1 1 2 3 3 2 2 2 2 1 1 1 1 1 1 1 1 1
1 0 1 1 2 4 4 4 6 8 11 12 13 12 11 9 9 10 10 10 9 9 8 7 6 6 5 4 3 2 2 1 2 2 2 3 3 3 3 3 2 2 1 1 1 1 1 1 1
2 2 2 2 1 2 4 2 2 4 4 6 8 9 10 12 12 12 11 10 9 10 10 9 7 6 5 5 3 2 1 1 0 1 1 3 4 4 3 3 3 2 2 2 2 2 2 1 1
4 3 2 3 3 2 3 2 4 4 4 6 7 7 7 8 10 10 11 10 10 9 9 7 7 6 6 5 5 5 4 3 3 2 2 2 3 3 4 3 3 3 2 2 2 2 2 2 1
5 3 1 1 2 2 2 3 5 2 4 6 7 8 7 8 9 11 11 11 10 9 8 7 6 6 6 6 6 6 4 4 2 2 2 3 3 3 4 4 3 3 3 3 3 2 2 2 2
1 4 7 5 5 2 3 3 4 4 7 7 7 8 8 8 9 9 8 7 7 7 7 6 6 6 6 6 6 6 6 5 3 3 3 3 2 2 3 4 4 4 3 4 4 3 3 3 3
4 6 5 7 5 4 2 2 5 4 5 8 9 9 9 8 8 8 8 8 8 8 8 7 7 6 6 6 6 7 7 6 6 5 4 3 3 3 4 4 4 4 4 4 4 3 3 3 3
2 8 7 4 4 4 3 1 5 3 3 4 6 8 8 7 8 9 10 10 9 9 8 7 7 7 6 6 6 5 5 4 4 4 4 4 4 4 4 4 4 5 5 5 4 3 3 3 3
1 2 7 7 1 1 2 2 4 1 4 4 4 5 7 7 8 8 9 9 9 9 9 8 8 7 6 6 5 5 4 4 4 4 3 3 3 3 4 4 4 4 4 4 3 3 3 3 3
5 5 5 5 3 1 2 2 4 3 3 3 3 4 5 6 6 6 7 7 8 8 8 7 7 7 6 5 5 5 4 4 4 3 4 4 4 4 3 3 4 4 4 4 4 3 3 3 3
1 2 4 4 5 6 2 6 6 7 6 6 4 4 5 5 5 6 6 6 7 7 7 7 7 6 5 5 5 4 4 4 4 4 5 5 4 4 4 4 4 4 4 4 3 4 4 4 4
3 4 6 4 3 4 4 7 4 5 6 6 5 4 4 4 4 5 5 4 4 6 7 7 7 7 6 6 5 5 4 4 4 5 5 5 5 4 5 4 4 4 4 4 4 5 4 4 5
Wind_Direction
171 160 154 163 34 46 77 95 101 87 65 63 73 78 75 61 89 118 147 134 130 129 128 124 123 121 120 118 116 115 115 117 116 116 118 120 120 121 124 125 127 128 127 127 127 132 134 131 128
159 159 154 52 64 75 82 104 93 99 121 109 81 78 75 69 84 111 126 134 132 130 127 127 125 123 122 121 121 120 119 118 119 119 120 123 123 124 125 127 127 128 129 129 128 129 129 131 133
166 176 116 58 86 130 113 114 110 107 108 95 83 62 69 97 108 121 137 134 128 125 128 132 130 127 126 125 125 124 124 124 123 122 122 123 126 126 127 128 130 131 131 132 132 133 133 136 139
160 138 45 64 89 128 120 129 119 108 86 76 92 71 61 86 112 125 131 129 125 125 130 134 132 130 129 129 129 128 127 128 128 126 125 126 128 128 128 129 131 135 138 137 137 139 141 143 144
104 69 44 43 65 84 117 123 117 105 93 91 96 96 81 77 110 122 128 128 128 127 129 135 133 133 132 130 129 130 132 132 131 129 130 131 131 131 132 134 136 139 140 142 144 147 148 149 148
91 69 67 82 88 84 102 112 106 104 110 109 105 105 98 120 120 128 129 129 130 131 131 130 135 136 135 133 132 133 135 136 135 135 136 137 137 137 137 140 144 144 145 149 150 153 157 160 161
123 108 136 128 100 100 123 122 117 124 127 128 125 105 121 131 132 132 130 127 125 128 127 125 132 136 137 137 137 136 136 136 138 140 141 142 144 143 145 149 152 153 154 157 162 167 173 177 182
160 122 131 135 130 143 139 117 125 127 120 130 126 126 148 153 135 129 128 124 125 126 127 129 128 131 135 138 143 143 142 140 140 142 144 145 147 151 154 156 163 165 166 171 178 185 192 200 207
134 102 166 176 153 157 134 108 101 100 115 121 106 124 144 140 130 126 127 125 132 135 138 139 136 138 141 146 149 147 148 148 148 147 146 141 133 146 160 170 175 177 180 185 192 200 210 219 224
133 154 196 180 162 146 130 122 122 109 109 102 106 117 132 137 136 138 142 145 149 150 158 157 155 153 151 155 140 149 153 146 145 151 144 131 137 162 167 174 183 187 190 197 207 215 220 230 233
155 177 166 142 159 134 128 121 112 122 129 145 142 144 145 144 143 144 147 151 157 158 158 163 165 162 160 152 147 152 149 149 158 171 166 149 147 155 157 161 182 193 197 212 222 231 230 222 229
146 196 144 130 132 132 139 135 116 126 155 153 147 147 149 150 151 152 154 156 153 154 159 162 160 157 159 150 155 160 160 162 175 185 170 155 151 152 158 176 187 192 207 212 228 244 258 251 245
134 122 111 124 128 132 124 124 116 121 134 141 143 145 150 154 155 155 158 157 152 152 153 154 153 151 149 147 161 157 163 167 173 171 167 160 155 164 170 184 185 196 202 207 218 225 233 239 236
170 130 120 133 127 118 110 106 106 135 138 142 148 152 157 157 156 154 154 157 157 155 156 155 153 152 145 147 151 156 161 166 166 173 174 166 159 159 158 166 177 197 202 202 197 210 223 228 216
97 84 25 145 125 124 99 70 129 150 145 150 156 158 161 160 158 161 163 162 161 158 155 155 155 152 149 149 152 149 153 156 170 174 166 164 158 157 157 161 178 205 200 179 169 206 209 207 197
25 51 48 271 138 135 105 135 157 151 153 157 162 162 160 163 163 163 160 158 159 154 152 157 155 149 152 148 146 145 150 154 165 156 150 163 160 153 151 155 190 204 151 138 156 152 126 181 151
22 20 242 270 199 144 115 160 169 161 158 163 166 165 161 161 160 160 159 158 159 157 156 155 147 150 156 153 147 143 142 151 158 150 149 164 161 153 151 162 184 173 123 157 202 146 150 165 215
243 223 235 221 217 131 125 159 167 175 164 169 170 168 166 168 169 165 162 160 157 155 154 156 157 159 154 146 134 124 128 162 156 166 169 169 169 159 150 157 170 139 128 136 136 161 146 173 195
216 211 242 227 178 127 147 162 180 184 176 173 171 173 175 175 168 163 163 162 158 157 157 161 163 170 160 157 164 163 184 191 186 190 182 180 179 168 160 166 164 154 161 187 178 157 156 227 122
176 193 272 302 141 131 147 171 185 187 188 180 174 176 176 167 163 165 165 165 167 169 171 170 173 177 176 179 178 172 166 181 197 211 194 193 187 184 180 172 183 181 168 184 184 147 157 249 148
284 199 208 179 45 80 106 14 194 194 175 167 169 168 170 171 172 172 171 173 172 175 179 179 180 179 181 177 157 145 113 84 166 211 216 213 200 195 190 180 183 191 180 196 209 191 185 220 255
271 257 205 162 103 250 139 186 261 187 162 177 174 163 167 173 172 171 170 171 176 183 182 178 178 179 182 174 167 166 173 190 206 201 205 219 211 205 198 188 191 192 191 200 222 211 196 181 217
246 254 225 212 126 57 18 122 271 166 177 191 186 178 169 170 172 175 178 181 179 177 175 175 174 182 185 182 179 178 190 201 202 195 200 218 227 220 210 205 204 201 200 206 212 203 204 192 191
251 18 12 41 68 28 253 136 265 216 192 181 182 178 176 176 177 176 174 171 174 174 176 175 176 193 193 189 188 188 193 194 194 205 209 220 227 230 227 217 211 210 209 210 211 208 208 213 204
51 71 25 1 11 268 278 104 248 232 190 174 173 175 176 175 171 162 165 176 175 174 182 179 181 194 195 194 198 200 199 197 202 206 208 208 219 226 230 227 214 213 217 215 210 211 219 215 212
198 133 151 198 223 266 340 191 250 229 163 151 152 164 164 167 167 164 177 183 181 180 181 178 184 195 193 194 205 206 205 206 213 213 211 214 221 225 224 224 220 219 218 222 213 213 216 215 219
172 186 172 146 158 85 293 279 301 17 71 87 114 136 161 175 177 174 178 179 180 182 183 183 185 193 196 195 199 205 204 207 215 217 214 219 225 226 224 225 224 226 222 219 208 216 221 215 218
162 162 86 103 140 243 285 257 235 216 160 123 130 159 169 169 171 177 173 175 183 185 184 179 180 190 193 195 200 205 211 213 215 214 220 223 226 227 224 227 227 227 226 224 214 221 221 214 225
334 86 107 123 150 154 220 265 224 195 179 162 164 167 159 157 168 174 171 184 183 179 177 180 182 183 189 194 197 201 207 211 215 224 229 228 230 226 227 225 226 226 225 228 224 228 223 222 234
173 172 143 146 231 163 163 261 267 179 162 157 158 151 134 136 143 160 164 170 184 180 179 183 183 184 193 193 192 199 206 211 216 228 234 230 231 232 230 226 222 225 228 224 222 231 228 226 234